[[{"header":{"parameterUnit":"m.s-1","parameterCategory":1,"la1":30.2991,"la2":30.254,"lo1":-89.0895,"lo2":-89.0444,"dy":0.0017,"dx":0.0017,"nx":28,"ny":28,"refTime":"2025-01-19T09:00:00:Z","depth":0,"parameterNumber":2,"parameterNumberName":"U-component_of_WINDS"},"data":[0,0,0,0,0,0,0,0,0,0,0,0,0,0,0,0,0,0,0,0,0,0,0,0,0,0,0,0,0,0,0,0,0,0,0,0,0,0,0,0,0,0,0,0,0,0,0,0,0,0,0,0,0,0,0,0,0,0,-0.3226,-0.3226,0,-0.3285,-0.3286,-0.3287,-0.3261,-0.326,-0.3258,-0.3257,-0.3322,-0.3325,-0.3328,0,0,0,0,0,0,0,0,0,0,0,0,0,-0.3092,-0.3094,-0.3225,-0.3226,-0.3227,-0.3285,-0.3286,-0.3287,-0.3262,-0.326,-0.3258,-0.3256,-0.3321,-0.3325,-0.3328,0,0,0,0,0,0,0,0,0,0,0,0,0,-0.3151,-0.3095,-0.3225,-0.3221,-0.3221,-0.3285,-0.3286,-0.3287,-0.3262,-0.326,-0.3258,-0.3255,-0.332,-0.3324,-0.3329,-0.3401,0,0,-0.3343,-0.3345,0,0,0,0,0,0,0,0,-0.3147,-0.3156,-0.3221,-0.3222,-0.3222,-0.3263,-0.3263,-0.3325,-0.3262,-0.3247,-0.3257,-0.3254,-0.3305,-0.331,-0.3326,-0.3404,-0.3407,-0.3343,-0.3346,-0.3348,-0.3349,0,0,0,0,0,0,0,-0.3143,-0.3153,-0.3249,-0.3222,-0.3223,-0.3217,-0.3223,-0.3274,-0.3287,-0.3248,-0.3246,-0.3253,-0.3304,-0.3322,-0.3328,-0.3408,-0.3343,-0.3347,-0.335,-0.3352,-0.3547,-0.3549,0,0,0,0,0,0,-0.3139,-0.315,-0.3247,-0.3251,-0.3178,-0.3221,-0.3228,-0.3252,-0.3287,-0.329,-0.3255,-0.3252,-0.3315,-0.3322,-0.333,-0.3417,-0.3348,-0.3352,-0.3355,-0.3545,-0.3548,-0.355,0,0,0,0,0,0,-0.3136,-0.3148,-0.3245,-0.32,-0.3212,-0.3226,-0.3254,-0.3255,-0.3272,-0.3292,-0.3294,-0.3271,-0.3314,-0.3323,-0.3383,-0.3419,-0.3355,-0.3359,-0.3542,-0.3546,-0.3549,-0.3591,0,0,0,0,0,0,-0.3132,-0.3147,-0.3174,-0.3201,-0.3214,-0.3297,-0.3256,-0.3258,-0.328,-0.3276,-0.3307,-0.331,-0.3313,-0.3376,-0.3388,-0.3424,-0.3362,-0.3539,-0.3544,-0.3548,-0.3587,-0.3596,-0.3604,0,0,0,0,0,-0.3128,-0.3185,-0.3176,-0.3188,-0.3248,-0.3299,-0.3307,-0.3307,-0.3283,-0.3311,-0.3323,-0.3309,-0.3412,-0.3383,-0.3395,-0.3434,-0.3537,-0.3542,-0.3548,-0.3583,-0.3594,-0.3604,0,0,0,0,0,0,-0.3164,-0.3188,-0.3179,-0.3246,-0.327,-0.3294,-0.333,-0.3319,-0.3352,-0.3348,-0.3348,-0.3355,-0.3417,-0.3431,-0.3397,-0.3505,-0.3471,-0.3479,-0.3494,-0.3504,-0.3513,-0.3509,-0.3366,0,0,0,0,0,-0.3179,-0.3217,-0.3237,-0.3294,-0.3307,-0.3316,-0.3338,-0.3336,-0.3362,-0.3373,-0.3389,-0.3416,-0.3454,-0.348,-0.3516,-0.3588,-0.3595,-0.362,-0.3629,-0.3635,-0.3643,-0.3682,-0.3694,-0.3568,-0.3568,-0.3568,0,0,-0.3212,-0.323,-0.3255,-0.3302,-0.3321,-0.3361,-0.3325,-0.3369,-0.3399,-0.338,-0.3437,-0.345,-0.348,-0.3546,-0.3576,-0.3559,-0.3679,-0.3642,-0.3648,-0.3652,-0.3689,-0.3701,-0.3711,-0.3572,-0.3571,-0.3571,0,0,-0.3293,-0.331,-0.336,-0.3379,-0.3407,-0.3412,-0.3424,-0.345,-0.3457,-0.3514,-0.35,-0.3536,-0.3602,-0.3624,-0.3643,-0.373,-0.3719,-0.3742,-0.3787,-0.3824,-0.3834,-0.3843,-0.3875,-0.3886,-0.3749,-0.3749,-0.3749,0,-0.3332,-0.339,-0.3387,-0.3432,-0.3453,-0.3435,-0.3486,-0.3505,-0.3544,-0.3559,-0.354,-0.3621,-0.364,-0.3711,-0.3732,-0.3748,-0.3762,-0.3739,-0.3833,-0.3842,-0.385,-0.388,-0.3892,-0.3752,-0.3751,-0.3751,-0.3751,0,-0.3436,-0.3477,-0.3514,-0.355,-0.3576,-0.3623,-0.3628,-0.3653,-0.3648,-0.3656,-0.3714,-0.3735,-0.3776,-0.3792,-0.3788,-0.3862,-0.3851,-0.3832,-0.3799,-0.3865,-0.3893,-0.3905,-0.3755,-0.3755,-0.3754,-0.3753,0,0,-0.3544,-0.3576,-0.359,-0.3606,-0.3635,-0.3667,-0.3713,-0.3751,-0.3774,-0.3801,-0.384,-0.3895,-0.3878,-0.39,-0.3898,-0.3931,-0.3999,-0.3908,-0.3909,-0.3925,-0.4082,-0.4097,-0.411,-0.399,-0.3992,-0.3994,-0.408,0,-0.3628,-0.3709,-0.3706,-0.3782,-0.382,-0.3802,-0.3842,-0.3864,-0.3872,-0.3906,-0.3915,-0.3954,-0.3927,-0.3941,-0.3972,-0.3984,-0.4031,-0.3977,-0.4028,-0.403,-0.4023,-0.4125,-0.4141,-0.4221,-0.4091,-0.4092,-0.4094,0,-0.3738,-0.3767,-0.3846,-0.3867,-0.3883,-0.392,-0.3954,-0.3986,-0.401,-0.4014,-0.4037,-0.403,-0.4077,-0.404,-0.4106,-0.407,-0.409,-0.4099,-0.4102,-0.4108,-0.4068,-0.4135,-0.4246,-0.4259,-0.4111,-0.411,-0.4109,0,-0.381,-0.3869,-0.3923,-0.3937,-0.3964,-0.399,-0.4003,-0.4025,-0.4047,-0.4077,-0.4092,-0.4127,-0.4146,-0.4174,-0.4176,-0.4149,-0.4243,-0.4206,-0.4248,-0.4248,-0.427,-0.4269,-0.4387,-0.428,-0.428,-0.428,-0.428,0,-0.3905,-0.3955,-0.3956,-0.399,-0.4044,-0.404,-0.4095,-0.4105,-0.4124,-0.416,-0.4146,-0.4181,-0.4181,-0.4216,-0.4217,-0.4272,-0.4281,-0.4285,-0.4285,-0.4287,-0.4287,-0.4302,-0.4297,-0.4283,-0.4283,-0.4282,-0.4281,0,-0.3996,-0.3999,-0.4058,-0.4077,-0.4083,-0.4123,-0.414,-0.4172,-0.4177,-0.4223,-0.4233,-0.4242,-0.4283,-0.4286,-0.4334,-0.4335,-0.4401,-0.4394,-0.4392,-0.4392,-0.4434,-0.443,-0.4568,-0.4586,-0.4466,-0.4467,-0.4468,0,-0.4058,-0.4095,-0.4118,-0.414,-0.4154,-0.419,-0.4212,-0.4209,-0.4233,-0.4263,-0.4292,-0.433,-0.4361,-0.4426,-0.4437,-0.4473,-0.4468,-0.4514,-0.4474,-0.4474,-0.447,-0.4469,-0.4473,-0.4522,-0.4524,-0.4525,-0.4526,0,-0.4167,-0.4166,-0.4198,-0.423,-0.4257,-0.4282,-0.4306,-0.4326,-0.4325,-0.4353,-0.4393,-0.4417,-0.4463,-0.4502,-0.4537,-0.455,-0.4539,-0.4537,-0.4549,-0.4553,-0.455,-0.4553,-0.4415,-0.4535,-0.4534,-0.4533,-0.4533,-0.4532,-0.4246,-0.4278,-0.4299,-0.4335,-0.4352,-0.4374,-0.4405,-0.4413,-0.4446,-0.4484,-0.448,-0.4524,-0.4547,-0.4592,-0.4607,-0.4642,-0.4627,-0.4644,-0.4649,-0.4654,-0.4658,-0.4543,-0.4649,-0.4648,-0.4648,-0.4648,-0.4648,0,-0.4356,-0.4367,-0.44,-0.4433,-0.4461,-0.4445,-0.447,-0.4495,-0.4534,-0.4556,-0.4585,-0.4631,-0.4668,-0.4681,-0.4717,-0.4742,-0.4738,-0.4752,-0.4751,-0.4754,-0.4669,-0.4656,-0.4755,-0.4755,-0.4755,-0.4755,-0.4755,-0.4755,-0.4416,-0.4469,-0.447,-0.4532,-0.4543,-0.4586,-0.4602,-0.4622,-0.4639,-0.469,-0.472,-0.4727,-0.4746,-0.4782,-0.4815,-0.4818,-0.4833,-0.4849,-0.485,-0.4771,-0.476,-0.475,-0.4738,-0.4852,-0.4852,-0.4933,-0.4933,-0.4934]},{"header":{"parameterUnit":"m.s-1","parameterCategory":1,"la1":30.2991,"la2":30.254,"lo1":-89.0895,"lo2":-89.0444,"dy":0.0017,"dx":0.0017,"nx":28,"ny":28,"refTime":"2025-01-19T09:00:00:Z","depth":0,"parameterNumber":3,"parameterNumberName":"V-component_of_WINDS"},"data":[0,0,0,0,0,0,0,0,0,0,0,0,0,0,0,0,0,0,0,0,0,0,0,0,0,0,0,0,0,0,0,0,0,0,0,0,0,0,0,0,0,0,0,0,0,0,0,0,0,0,0,0,0,0,0,0,0,0,-7.8528,-7.8529,0,-7.8656,-7.8658,-7.8659,-7.8535,-7.853,-7.8525,-7.852,-7.8648,-7.8655,-7.8663,0,0,0,0,0,0,0,0,0,0,0,0,0,-7.817,-7.8177,-7.8528,-7.8529,-7.8531,-7.8656,-7.8658,-7.866,-7.8536,-7.853,-7.8524,-7.8518,-7.8645,-7.8654,-7.8664,0,0,0,0,0,0,0,0,0,0,0,0,0,-7.8314,-7.8179,-7.8527,-7.8484,-7.8482,-7.8656,-7.8658,-7.866,-7.8537,-7.853,-7.8522,-7.8515,-7.8642,-7.8653,-7.8665,-7.8887,0,0,-7.8702,-7.8707,0,0,0,0,0,0,0,0,-7.8306,-7.8328,-7.8489,-7.8488,-7.8485,-7.8572,-7.8578,-7.8736,-7.8539,-7.8516,-7.852,-7.8512,-7.8628,-7.8641,-7.8681,-7.8893,-7.8898,-7.8703,-7.871,-7.8715,-7.8719,0,0,0,0,0,0,0,-7.8296,-7.8321,-7.8578,-7.8491,-7.8489,-7.8457,-7.8469,-7.8607,-7.8612,-7.8517,-7.8509,-7.8526,-7.8625,-7.867,-7.8683,-7.89,-7.8702,-7.8713,-7.872,-7.8725,-7.9299,-7.9306,0,0,0,0,0,0,-7.8292,-7.8314,-7.8574,-7.8582,-7.8376,-7.8469,-7.8483,-7.8551,-7.861,-7.8612,-7.8532,-7.8519,-7.8653,-7.8669,-7.8687,-7.895,-7.8715,-7.8726,-7.8733,-7.9291,-7.9301,-7.9309,0,0,0,0,0,0,-7.8285,-7.8316,-7.8569,-7.8446,-7.8475,-7.8483,-7.8561,-7.8558,-7.8602,-7.8621,-7.8621,-7.8577,-7.8648,-7.867,-7.8838,-7.8952,-7.8732,-7.8743,-7.9281,-7.9294,-7.9305,-7.9478,0,0,0,0,0,0,-7.8275,-7.8314,-7.84,-7.8449,-7.8483,-7.872,-7.8568,-7.8566,-7.8623,-7.8608,-7.8663,-7.8665,-7.8644,-7.8821,-7.885,-7.8965,-7.8752,-7.9271,-7.9287,-7.9301,-7.9462,-7.9495,-7.9522,0,0,0,0,0,-7.8262,-7.8443,-7.8405,-7.8437,-7.859,-7.8727,-7.8746,-7.872,-7.8633,-7.8719,-7.873,-7.8663,-7.8935,-7.8839,-7.8871,-7.8991,-7.9264,-7.9282,-7.93,-7.9449,-7.9488,-7.9522,0,0,0,0,0,0,-7.8406,-7.8448,-7.8407,-7.8609,-7.8666,-7.8706,-7.8813,-7.8763,-7.8844,-7.8826,-7.8788,-7.8801,-7.8979,-7.9001,-7.8894,-7.9208,-7.9085,-7.911,-7.9187,-7.9225,-7.9255,-7.9245,-7.8762,0,0,0,0,0,-7.8461,-7.8571,-7.8601,-7.8776,-7.8807,-7.8806,-7.8864,-7.8839,-7.8895,-7.8918,-7.8942,-7.8999,-7.9096,-7.9162,-7.9253,-7.9464,-7.9474,-7.9562,-7.9592,-7.9617,-7.964,-7.9752,-7.9792,-7.9369,-7.9369,-7.9368,0,0,-7.8576,-7.8613,-7.8684,-7.8806,-7.8847,-7.896,-7.8826,-7.8951,-7.9034,-7.8936,-7.9097,-7.9117,-7.9177,-7.9368,-7.9453,-7.9392,-7.9758,-7.964,-7.966,-7.9669,-7.9775,-7.9815,-7.9851,-7.9381,-7.9379,-7.9377,0,0,-7.8844,-7.8883,-7.9033,-7.9077,-7.9141,-7.9139,-7.9175,-7.9223,-7.9233,-7.9394,-7.9323,-7.942,-7.959,-7.9635,-7.968,-7.9965,-7.9905,-7.9995,-8.0152,-8.0262,-8.0296,-8.0325,-8.0426,-8.0463,-8.0017,-8.0018,-8.0018,0,-7.8979,-7.9147,-7.9116,-7.9247,-7.9302,-7.922,-7.9371,-7.9414,-7.9504,-7.9543,-7.9474,-7.9685,-7.972,-7.992,-7.9989,-8.0028,-8.0067,-7.9989,-8.0294,-8.0323,-8.035,-8.0446,-8.0484,-8.0028,-8.0027,-8.0026,-8.0025,0,-7.9309,-7.9427,-7.954,-7.9631,-7.9699,-7.9839,-7.9827,-7.9899,-7.9867,-7.9872,-8.0036,-8.0074,-8.0172,-8.0217,-8.0187,-8.0413,-8.0373,-8.03,-8.0175,-8.0401,-8.049,-8.0527,-8.0043,-8.0039,-8.0036,-8.0034,0,0,-7.9672,-7.9743,-7.9786,-7.9826,-7.989,-7.9979,-8.0115,-8.0211,-8.0273,-8.0338,-8.045,-8.0595,-8.0527,-8.0579,-8.0553,-8.065,-8.0872,-8.0564,-8.0565,-8.062,-8.1122,-8.1177,-8.122,-8.0832,-8.0839,-8.0845,-8.1117,0,-7.9941,-8.0178,-8.0154,-8.0379,-8.0487,-8.041,-8.0527,-8.0579,-8.0586,-8.0677,-8.0684,-8.0788,-8.0691,-8.0722,-8.0814,-8.0825,-8.0972,-8.0805,-8.0935,-8.094,-8.0923,-8.1267,-8.1326,-8.1581,-8.1152,-8.1157,-8.1162,0,-8.0288,-8.0366,-8.0603,-8.065,-8.0694,-8.0801,-8.0887,-8.0975,-8.1031,-8.1029,-8.1087,-8.1044,-8.1178,-8.1051,-8.1234,-8.1122,-8.1173,-8.1186,-8.1195,-8.1206,-8.1065,-8.1288,-8.1662,-8.17,-8.1216,-8.1212,-8.1208,0,-8.0528,-8.0693,-8.0855,-8.0892,-8.0951,-8.1028,-8.1055,-8.1104,-8.1164,-8.1238,-8.1276,-8.1365,-8.1413,-8.1482,-8.1463,-8.1373,-8.1651,-8.1522,-8.1652,-8.1653,-8.1715,-8.1711,-8.2103,-8.1748,-8.1747,-8.1747,-8.1746,0,-8.0832,-8.098,-8.0964,-8.1064,-8.1227,-8.1196,-8.1357,-8.1375,-8.1419,-8.1519,-8.1457,-8.1553,-8.1522,-8.1616,-8.1602,-8.1755,-8.1778,-8.1779,-8.1774,-8.1785,-8.1785,-8.1818,-8.18,-8.1757,-8.1755,-8.1753,-8.1751,0,-8.1129,-8.1124,-8.1297,-8.1339,-8.1353,-8.1471,-8.1506,-8.1599,-8.1601,-8.1729,-8.1757,-8.1761,-8.1868,-8.1856,-8.1974,-8.1965,-8.2156,-8.2129,-8.2138,-8.2132,-8.2263,-8.2251,-8.2689,-8.2745,-8.2354,-8.2358,-8.2361,0,-8.1323,-8.1435,-8.149,-8.1554,-8.1587,-8.1691,-8.1751,-8.1725,-8.179,-8.1862,-8.1946,-8.2048,-8.2127,-8.2301,-8.2313,-8.2403,-8.2378,-8.2525,-8.2391,-8.2399,-8.238,-8.2374,-8.2384,-8.2552,-8.2556,-8.256,-8.2563,0,-8.1669,-8.1661,-8.1752,-8.1842,-8.1917,-8.1986,-8.2049,-8.2104,-8.2083,-8.2159,-8.2269,-8.2331,-8.2452,-8.2553,-8.2639,-8.2665,-8.2611,-8.2605,-8.264,-8.2653,-8.2654,-8.2655,-8.221,-8.2595,-8.2592,-8.259,-8.2588,-8.2587,-8.192,-8.2016,-8.207,-8.2172,-8.2217,-8.2277,-8.2367,-8.238,-8.2472,-8.257,-8.2548,-8.2671,-8.2722,-8.2831,-8.2866,-8.2961,-8.2907,-8.2957,-8.297,-8.2983,-8.2999,-8.2639,-8.2976,-8.2975,-8.2974,-8.2973,-8.2973,0,-8.2262,-8.2293,-8.2388,-8.2478,-8.2559,-8.2502,-8.2568,-8.2639,-8.2749,-8.2802,-8.2882,-8.3007,-8.3104,-8.3124,-8.3216,-8.3288,-8.3265,-8.3313,-8.3308,-8.3314,-8.3042,-8.3002,-8.333,-8.333,-8.333,-8.333,-8.333,-8.3329,-8.245,-8.2609,-8.2608,-8.2787,-8.2816,-8.2938,-8.298,-8.3034,-8.3077,-8.322,-8.3301,-8.3313,-8.3353,-8.3447,-8.3533,-8.3536,-8.3573,-8.3631,-8.3624,-8.3369,-8.3334,-8.33,-8.3262,-8.3639,-8.364,-8.3889,-8.3891,-8.3893]}]]